Time,TemperatureF,DewpointF,PressureIn,WindDirection,WindDirectionDegrees,WindSpeedMPH,WindSpeedGustMPH,Humidity,HourlyPrecipIn,Conditions,Clouds,dailyrainin,SoftwareType,DateUTC
2013-06-13 00:00:00,57.4,45.3,31.01,NW,307,2.0,5.0,64,0.00,CLR,CLR,0.00,WeatherDisplay:10.37,2013-06-13 04:00:00,
2013-06-13 00:05:00,57.4,45.3,31.01,NW,314,3.0,6.0,64,0.00,CLR,CLR,0.00,WeatherDisplay:10.37,2013-06-13 04:05:00,
2013-06-13 00:10:00,57.4,45.7,31.01,NW,315,3.0,6.0,65,0.00,CLR,CLR,0.00,WeatherDisplay:10.37,2013-06-13 04:10:00,
2013-06-13 00:20:00,57.2,45.5,31.01,NW,309,2.0,5.0,65,0.00,CLR,CLR,0.00,WeatherDisplay:10.37,2013-06-13 04:20:00,
2013-06-13 00:25:00,57.2,45.5,31.01,NW,305,0.0,4.0,65,0.00,CLR,CLR,0.00,WeatherDisplay:10.37,2013-06-13 04:25:00,
2013-06-13 00:27:00,57.2,45.9,31.01,NW,307,0.0,3.0,66,0.00,CLR,CLR,0.00,WeatherDisplay:10.37,2013-06-13 04:27:00,
2013-06-13 00:35:00,57.0,45.8,31.01,NW,306,0.0,4.0,66,0.00,CLR,CLR,0.00,WeatherDisplay:10.37,2013-06-13 04:35:00,
2013-06-13 00:40:00,56.8,45.6,31.01,NW,306,3.0,4.0,66,0.00,CLR,CLR,0.00,WeatherDisplay:10.37,2013-06-13 04:40:00,
2013-06-13 00:50:00,56.8,46.0,31.01,NW,315,2.0,4.0,67,0.00,CLR,CLR,0.00,WeatherDisplay:10.37,2013-06-13 04:50:00,
2013-06-13 01:00:00,56.7,46.2,31.01,NW,310,0.0,6.0,68,0.00,CLR,CLR,0.00,WeatherDisplay:10.37,2013-06-13 05:00:00,
2013-06-13 01:05:00,56.7,46.6,31.01,NW,307,3.0,6.0,69,0.00,CLR,CLR,0.00,WeatherDisplay:10.37,2013-06-13 05:05:00,
2013-06-13 01:10:00,56.7,46.6,31.01,NW,317,3.0,5.0,69,0.00,CLR,CLR,0.00,WeatherDisplay:10.37,2013-06-13 05:10:00,
2013-06-13 01:20:00,56.3,46.3,31.01,NW,316,0.0,4.0,69,0.00,CLR,CLR,0.00,WeatherDisplay:10.37,2013-06-13 05:20:00,
2013-06-13 01:30:00,55.6,45.6,31.01,NNW,337,0.0,0.0,69,0.00,CLR,CLR,0.00,WeatherDisplay:10.37,2013-06-13 05:30:00,
2013-06-13 01:40:00,54.8,44.8,31.01,NNW,338,0.0,0.0,69,0.00,CLR,CLR,0.00,WeatherDisplay:10.37,2013-06-13 05:40:00,
2013-06-13 01:50:00,54.1,44.6,31.01,SW,229,0.0,0.0,70,0.00,CLR,CLR,0.00,WeatherDisplay:10.37,2013-06-13 05:50:00,
2013-06-13 02:00:00,53.4,43.9,31.01,SW,229,0.0,0.0,70,0.00,CLR,CLR,0.00,WeatherDisplay:10.37,2013-06-13 06:00:00,
2013-06-13 02:05:00,53.2,43.7,31.01,SW,229,0.0,0.0,70,0.00,CLR,CLR,0.00,WeatherDisplay:10.37,2013-06-13 06:05:00,
2013-06-13 02:10:00,53.1,43.9,31.01,SW,229,0.0,0.0,71,0.00,CLR,CLR,0.00,WeatherDisplay:10.37,2013-06-13 06:10:00,
2013-06-13 02:20:00,52.9,44.1,31.01,SW,229,0.0,0.0,72,0.00,CLR,CLR,0.00,WeatherDisplay:10.37,2013-06-13 06:20:00,
2013-06-13 02:30:00,52.9,44.1,31.01,SW,229,0.0,0.0,72,0.00,CLR,CLR,0.00,WeatherDisplay:10.37,2013-06-13 06:30:00,
2013-06-13 02:40:00,52.9,44.5,31.01,SW,229,0.0,0.0,73,0.00,CLR,CLR,0.00,WeatherDisplay:10.37,2013-06-13 06:40:00,
2013-06-13 02:50:00,52.6,44.1,31.01,SW,229,0.0,0.0,73,0.00,CLR,CLR,0.00,WeatherDisplay:10.37,2013-06-13 06:50:00,
2013-06-13 03:00:00,52.3,44.3,31.01,SW,229,0.0,0.0,74,0.00,CLR,CLR,0.00,WeatherDisplay:10.37,2013-06-13 07:00:00,
2013-06-13 03:05:00,52.2,44.1,31.01,SW,229,0.0,0.0,74,0.00,CLR,CLR,0.00,WeatherDisplay:10.37,2013-06-13 07:05:00,
2013-06-13 03:10:00,52.0,43.9,31.01,SW,229,0.0,0.0,74,0.00,CLR,CLR,0.00,WeatherDisplay:10.37,2013-06-13 07:10:00,
2013-06-13 03:20:00,51.4,43.4,31.01,SW,229,0.0,0.0,74,0.00,CLR,CLR,0.00,WeatherDisplay:10.37,2013-06-13 07:20:00,
2013-06-13 03:30:00,51.2,43.5,31.01,SW,229,0.0,0.0,75,0.00,CLR,CLR,0.00,WeatherDisplay:10.37,2013-06-13 07:30:00,
2013-06-13 03:40:00,50.7,43.1,31.01,SW,229,0.0,0.0,75,0.00,CLR,CLR,0.00,WeatherDisplay:10.37,2013-06-13 07:40:00,
2013-06-13 03:50:00,50.5,43.3,31.01,SW,229,0.0,0.0,76,0.00,CLR,CLR,0.00,WeatherDisplay:10.37,2013-06-13 07:50:00,
2013-06-13 04:00:00,50.4,43.4,31.01,SW,229,0.0,0.0,77,0.00,CLR,CLR,0.00,WeatherDisplay:10.37,2013-06-13 08:00:00,
2013-06-13 04:05:00,50.2,43.2,31.01,SW,229,0.0,0.0,77,0.00,CLR,CLR,0.00,WeatherDisplay:10.37,2013-06-13 08:05:00,
2013-06-13 04:10:00,50.2,43.2,31.01,SW,229,0.0,0.0,77,0.00,CLR,CLR,0.00,WeatherDisplay:10.37,2013-06-13 08:10:00,
2013-06-13 04:20:00,50.2,43.9,31.01,SW,229,0.0,0.0,79,0.00,CLR,CLR,0.00,WeatherDisplay:10.37,2013-06-13 08:20:00,
2013-06-13 04:30:00,50.0,43.7,31.01,SW,229,0.0,0.0,79,0.00,CLR,CLR,0.00,WeatherDisplay:10.37,2013-06-13 08:30:00,
2013-06-13 04:40:00,49.8,43.5,31.01,SW,229,0.0,0.0,79,0.00,CLR,CLR,0.00,WeatherDisplay:10.37,2013-06-13 08:40:00,
2013-06-13 04:50:00,49.3,43.0,31.01,SW,229,0.0,0.0,79,0.00,CLR,CLR,0.00,WeatherDisplay:10.37,2013-06-13 08:50:00,
2013-06-13 05:00:00,48.9,43.0,31.01,SW,229,0.0,0.0,80,0.00,CLR,CLR,0.00,WeatherDisplay:10.37,2013-06-13 09:00:00,
2013-06-13 05:05:00,48.7,42.8,31.01,SW,229,0.0,0.0,80,0.00,CLR,CLR,0.00,WeatherDisplay:10.37,2013-06-13 09:05:00,
2013-06-13 05:10:00,48.7,42.8,31.01,SW,229,0.0,0.0,80,0.00,CLR,CLR,0.00,WeatherDisplay:10.37,2013-06-13 09:10:00,
2013-06-13 05:20:00,48.6,42.7,31.01,SW,229,0.0,0.0,80,0.00,CLR,CLR,0.00,WeatherDisplay:10.37,2013-06-13 09:20:00,
2013-06-13 05:30:00,48.4,42.8,31.01,SW,229,0.0,0.0,81,0.00,CLR,CLR,0.00,WeatherDisplay:10.37,2013-06-13 09:30:00,
2013-06-13 05:40:00,49.0,43.7,31.01,SW,229,0.0,0.0,82,0.00,CLR,CLR,0.00,WeatherDisplay:10.37,2013-06-13 09:40:00,
2013-06-13 05:50:00,48.9,43.3,31.01,SW,229,0.0,0.0,81,0.00,CLR,CLR,0.00,WeatherDisplay:10.37,2013-06-13 09:50:00,
2013-06-13 06:00:00,48.9,43.7,31.01,SW,229,0.0,0.0,82,0.00,CLR,CLR,0.00,WeatherDisplay:10.37,2013-06-13 10:00:00,
2013-06-13 06:05:00,49.3,44.0,31.01,SW,229,0.0,0.0,82,0.00,CLR,CLR,0.00,WeatherDisplay:10.37,2013-06-13 10:05:00,
2013-06-13 06:10:00,50.6,45.6,31.01,SW,229,0.0,0.0,83,0.00,CLR,CLR,0.00,WeatherDisplay:10.37,2013-06-13 10:10:00,
2013-06-13 06:20:00,52.9,47.9,31.01,SW,229,0.0,0.0,83,0.00,CLR,CLR,0.00,WeatherDisplay:10.37,2013-06-13 10:20:00,
2013-06-13 06:30:00,55.3,50.5,31.01,SW,229,0.0,0.0,84,0.00,CLR,CLR,0.00,WeatherDisplay:10.37,2013-06-13 10:30:00,
2013-06-13 06:40:00,56.7,51.6,31.01,SW,229,0.0,0.0,83,0.00,CLR,CLR,0.00,WeatherDisplay:10.37,2013-06-13 10:40:00,
2013-06-13 06:50:00,58.3,53.1,31.01,SW,229,0.0,0.0,83,0.00,CLR,CLR,0.00,WeatherDisplay:10.37,2013-06-13 10:50:00,
2013-06-13 07:00:00,59.4,54.3,31.01,SW,229,0.0,0.0,83,0.00,CLR,CLR,0.00,WeatherDisplay:10.37,2013-06-13 11:00:00,
2013-06-13 07:05:00,60.3,55.1,31.01,SW,229,0.0,0.0,83,0.00,CLR,CLR,0.00,WeatherDisplay:10.37,2013-06-13 11:05:00,
2013-06-13 07:10:00,61.0,55.8,31.01,WSW,239,0.0,0.0,83,0.00,CLR,CLR,0.00,WeatherDisplay:10.37,2013-06-13 11:10:00,
2013-06-13 07:20:00,61.5,56.3,31.01,NE,34,0.0,0.0,83,0.00,CLR,CLR,0.00,WeatherDisplay:10.37,2013-06-13 11:20:00,
2013-06-13 07:30:00,61.9,56.0,31.01,NNE,15,0.0,3.0,81,0.00,CLR,CLR,0.00,WeatherDisplay:10.37,2013-06-13 11:30:00,
2013-06-13 07:40:00,62.4,54.4,31.01,North,3,1.0,4.0,75,0.00,CLR,CLR,0.00,WeatherDisplay:10.37,2013-06-13 11:40:00,
2013-06-13 07:50:00,61.5,47.9,31.01,NNE,15,0.0,6.0,61,0.00,CLR,CLR,0.00,WeatherDisplay:10.37,2013-06-13 11:50:00,
2013-06-13 08:00:00,61.3,44.5,31.01,NNE,22,3.0,4.0,54,0.00,CLR,CLR,0.00,WeatherDisplay:10.37,2013-06-13 12:00:00,
2013-06-13 08:05:00,61.4,44.6,31.01,NNE,17,2.0,6.0,54,0.00,CLR,CLR,0.00,WeatherDisplay:10.37,2013-06-13 12:05:00,
2013-06-13 08:10:00,61.9,43.5,31.01,NNE,16,5.0,6.0,51,0.00,CLR,CLR,0.00,WeatherDisplay:10.37,2013-06-13 12:10:00,
2013-06-13 08:20:00,61.9,40.9,29.44,NNE,15,5.0,6.0,46,0.00,CLR,CLR,0.00,WeatherDisplay:10.37,2013-06-13 12:20:00,
2013-06-13 08:30:00,61.6,40.0,29.44,North,4,2.0,6.0,45,0.00,CLR,CLR,0.00,WeatherDisplay:10.37,2013-06-13 12:30:00,
2013-06-13 08:40:00,61.5,40.0,29.44,NW,323,3.0,4.0,45,0.00,CLR,CLR,0.00,WeatherDisplay:10.37,2013-06-13 12:40:00,
2013-06-13 08:50:00,61.9,40.3,29.44,NNE,18,5.0,6.0,45,0.00,CLR,CLR,0.00,WeatherDisplay:10.37,2013-06-13 12:50:00,
2013-06-13 09:00:00,62.4,40.7,29.44,North,3,2.0,5.0,45,0.00,CLR,CLR,0.00,WeatherDisplay:10.37,2013-06-13 13:00:00,
2013-06-13 09:05:00,63.1,40.8,29.44,NNW,341,3.0,6.0,44,0.00,CLR,CLR,0.00,WeatherDisplay:10.37,2013-06-13 13:05:00,
2013-06-13 09:10:00,63.5,40.6,29.44,NNW,341,3.0,6.0,43,0.00,CLR,CLR,0.00,WeatherDisplay:10.37,2013-06-13 13:10:00,
2013-06-13 09:20:00,63.5,36.7,29.44,NNW,331,5.0,10.0,37,0.00,CLR,CLR,0.00,WeatherDisplay:10.37,2013-06-13 13:20:00,
2013-06-13 09:30:00,63.5,38.1,29.44,North,1,3.0,6.0,39,0.00,CLR,CLR,0.00,WeatherDisplay:10.37,2013-06-13 13:30:00,
2013-06-13 09:40:00,63.5,36.7,29.44,NE,44,5.0,10.0,37,0.00,CLR,CLR,0.00,WeatherDisplay:10.37,2013-06-13 13:40:00,
2013-06-13 09:45:00,63.5,38.1,29.44,NE,46,3.0,6.0,39,0.00,CLR,CLR,0.00,WeatherDisplay:10.37,2013-06-13 13:45:00,
2013-06-13 09:50:00,63.7,38.2,29.44,NNE,29,3.0,6.0,39,0.00,CLR,CLR,0.00,WeatherDisplay:10.37,2013-06-13 13:50:00,
2013-06-13 10:00:00,63.7,37.6,29.44,NE,45,5.0,7.0,38,0.00,CLR,CLR,0.00,WeatherDisplay:10.37,2013-06-13 14:00:00,
2013-06-13 10:10:00,63.6,38.2,29.44,NE,42,5.0,8.0,39,0.00,CLR,CLR,0.00,WeatherDisplay:10.37,2013-06-13 14:10:00,
2013-06-13 10:20:00,63.7,38.9,29.44,NE,53,3.0,6.0,40,0.00,CLR,CLR,0.00,WeatherDisplay:10.37,2013-06-13 14:20:00,
2013-06-13 10:30:00,64.4,38.9,29.44,NNE,13,3.0,6.0,39,0.00,CLR,CLR,0.00,WeatherDisplay:10.37,2013-06-13 14:30:00,
2013-06-13 10:40:00,64.8,36.5,29.44,NNE,23,5.0,8.0,35,0.00,CLR,CLR,0.00,WeatherDisplay:10.37,2013-06-13 14:40:00,
2013-06-13 10:50:00,65.0,36.6,29.44,ENE,66,3.0,6.0,35,0.00,CLR,CLR,0.00,WeatherDisplay:10.37,2013-06-13 14:50:00,
2013-06-13 11:00:00,65.6,35.7,29.44,North,352,3.0,8.0,33,0.00,CLR,CLR,0.00,WeatherDisplay:10.37,2013-06-13 15:00:00,
2013-06-13 11:05:00,65.7,35.8,29.44,North,6,5.0,6.0,33,0.00,CLR,CLR,0.00,WeatherDisplay:10.37,2013-06-13 15:05:00,
2013-06-13 11:10:00,65.5,35.6,29.44,NNE,25,2.0,8.0,33,0.00,CLR,CLR,0.00,WeatherDisplay:10.37,2013-06-13 15:10:00,
2013-06-13 11:20:00,65.4,35.5,29.44,NE,42,5.0,6.0,33,0.00,CLR,CLR,0.00,WeatherDisplay:10.37,2013-06-13 15:20:00,
2013-06-13 11:30:00,65.7,35.8,29.44,NE,46,5.0,8.0,33,0.00,CLR,CLR,0.00,WeatherDisplay:10.37,2013-06-13 15:30:00,
2013-06-13 11:40:00,66.0,35.3,29.44,NNE,23,5.0,7.0,32,0.00,CLR,CLR,0.00,WeatherDisplay:10.37,2013-06-13 15:40:00,
2013-06-13 11:50:00,66.6,35.8,29.44,ENE,66,3.0,6.0,32,0.00,CLR,CLR,0.00,WeatherDisplay:10.37,2013-06-13 15:50:00,
2013-06-13 12:00:00,66.6,35.0,29.41,NE,50,2.0,6.0,31,0.00,CLR,CLR,0.00,WeatherDisplay:10.37,2013-06-13 16:00:00,
2013-06-13 12:05:00,66.7,34.3,29.41,ENE,65,3.0,9.0,30,0.00,CLR,CLR,0.00,WeatherDisplay:10.37,2013-06-13 16:05:00,
2013-06-13 12:10:00,66.9,36.1,29.41,NE,48,5.0,9.0,32,0.00,CLR,CLR,0.00,WeatherDisplay:10.37,2013-06-13 16:10:00,
2013-06-13 12:20:00,67.3,32.1,29.41,NNE,27,6.0,8.0,27,0.00,CLR,CLR,0.00,WeatherDisplay:10.37,2013-06-13 16:20:00,
2013-06-13 12:30:00,67.5,31.3,29.41,NE,40,7.0,8.0,26,0.00,CLR,CLR,0.00,WeatherDisplay:10.37,2013-06-13 16:30:00,
2013-06-13 12:40:00,67.3,30.2,29.41,NNE,31,3.0,8.0,25,0.00,CLR,CLR,0.00,WeatherDisplay:10.37,2013-06-13 16:40:00,
2013-06-13 12:50:00,67.5,31.3,29.41,NNW,345,5.0,7.0,26,0.00,CLR,CLR,0.00,WeatherDisplay:10.37,2013-06-13 16:50:00,
2013-06-13 13:00:00,67.8,30.7,29.41,North,7,3.0,7.0,25,0.00,CLR,CLR,0.00,WeatherDisplay:10.37,2013-06-13 17:00:00,
2013-06-13 13:05:00,67.8,29.7,29.41,North,359,5.0,8.0,24,0.00,CLR,CLR,0.00,WeatherDisplay:10.37,2013-06-13 17:05:00,
2013-06-13 13:10:00,67.6,29.5,29.41,North,5,1.0,6.0,24,0.00,CLR,CLR,0.00,WeatherDisplay:10.37,2013-06-13 17:10:00,
2013-06-13 13:20:00,67.6,29.5,29.41,NE,47,6.0,8.0,24,0.00,CLR,CLR,0.00,WeatherDisplay:10.37,2013-06-13 17:20:00,
2013-06-13 13:30:00,67.5,29.4,29.41,NNE,18,3.0,7.0,24,0.00,CLR,CLR,0.00,WeatherDisplay:10.37,2013-06-13 17:30:00,
2013-06-13 13:40:00,67.5,30.4,29.41,NNE,33,5.0,6.0,25,0.00,CLR,CLR,0.00,WeatherDisplay:10.37,2013-06-13 17:40:00,
2013-06-13 13:50:00,67.5,30.4,29.41,NNE,19,3.0,8.0,25,0.00,CLR,CLR,0.00,WeatherDisplay:10.37,2013-06-13 17:50:00,
2013-06-13 14:00:00,67.5,30.4,29.41,NNE,29,2.0,8.0,25,0.00,CLR,CLR,0.00,WeatherDisplay:10.37,2013-06-13 18:00:00,
2013-06-13 14:05:00,67.5,30.4,29.41,NE,37,3.0,6.0,25,0.00,CLR,CLR,0.00,WeatherDisplay:10.37,2013-06-13 18:05:00,
2013-06-13 14:10:00,67.1,30.1,29.41,NE,54,5.0,8.0,25,0.00,CLR,CLR,0.00,WeatherDisplay:10.37,2013-06-13 18:10:00,
2013-06-13 14:20:00,66.9,29.9,29.38,NE,35,3.0,6.0,25,0.00,CLR,CLR,0.00,WeatherDisplay:10.37,2013-06-13 18:20:00,
2013-06-13 14:30:00,67.3,30.2,29.38,ENE,76,3.0,6.0,25,0.00,CLR,CLR,0.00,WeatherDisplay:10.37,2013-06-13 18:30:00,
2013-06-13 14:40:00,67.1,30.1,29.38,NE,35,3.0,6.0,25,0.00,CLR,CLR,0.00,WeatherDisplay:10.37,2013-06-13 18:40:00,
2013-06-13 14:50:00,66.9,30.9,29.38,ENE,77,3.0,6.0,26,0.00,CLR,CLR,0.00,WeatherDisplay:10.37,2013-06-13 18:50:00,
2013-06-13 15:00:00,66.7,30.7,29.38,ENE,57,3.0,6.0,26,0.00,CLR,CLR,0.00,WeatherDisplay:10.37,2013-06-13 19:00:00,
2013-06-13 15:05:00,66.6,30.6,29.38,ENE,66,0.0,6.0,26,0.00,CLR,CLR,0.00,WeatherDisplay:10.37,2013-06-13 19:05:00,
2013-06-13 15:10:00,66.6,31.5,29.38,ENE,57,3.0,6.0,27,0.00,CLR,CLR,0.00,WeatherDisplay:10.37,2013-06-13 19:10:00,
2013-06-13 15:20:00,66.4,31.4,29.38,East,79,2.0,6.0,27,0.00,CLR,CLR,0.00,WeatherDisplay:10.37,2013-06-13 19:20:00,
2013-06-13 15:30:00,66.2,32.1,29.38,East,92,0.0,5.0,28,0.00,CLR,CLR,0.00,WeatherDisplay:10.37,2013-06-13 19:30:00,
2013-06-13 15:40:00,66.0,35.3,29.38,ESE,108,5.0,9.0,32,0.00,CLR,CLR,0.00,WeatherDisplay:10.37,2013-06-13 19:40:00,
2013-06-13 15:45:00,65.5,37.8,29.38,SE,126,6.0,8.0,36,0.00,CLR,CLR,0.00,WeatherDisplay:10.37,2013-06-13 19:45:00,
2013-06-13 15:50:00,64.9,38.0,29.38,SE,128,5.0,7.0,37,0.00,CLR,CLR,0.00,WeatherDisplay:10.37,2013-06-13 19:50:00,
2013-06-13 16:00:00,63.9,39.8,29.38,SE,134,3.0,8.0,41,0.00,CLR,CLR,0.00,WeatherDisplay:10.37,2013-06-13 20:00:00,
2013-06-13 16:05:00,63.7,40.1,29.38,SE,142,3.0,8.0,42,0.00,CLR,CLR,0.00,WeatherDisplay:10.37,2013-06-13 20:05:00,
2013-06-13 16:10:00,63.5,40.6,29.38,SE,141,3.0,8.0,43,0.00,CLR,CLR,0.00,WeatherDisplay:10.37,2013-06-13 20:10:00,
2013-06-13 16:20:00,63.1,40.3,29.38,SE,135,3.0,6.0,43,0.00,CLR,CLR,0.00,WeatherDisplay:10.37,2013-06-13 20:20:00,
2013-06-13 16:30:00,63.0,40.7,29.38,SE,132,0.0,4.0,44,0.00,CLR,CLR,0.00,WeatherDisplay:10.37,2013-06-13 20:30:00,
2013-06-13 16:40:00,63.0,40.1,29.38,SE,135,3.0,6.0,43,0.00,CLR,CLR,0.00,WeatherDisplay:10.37,2013-06-13 20:40:00,
2013-06-13 16:50:00,62.8,39.3,29.38,SE,141,3.0,6.0,42,0.00,CLR,CLR,0.00,WeatherDisplay:10.37,2013-06-13 20:50:00,
2013-06-13 17:00:00,62.4,39.0,29.38,SE,146,2.0,6.0,42,0.00,CLR,CLR,0.00,WeatherDisplay:10.37,2013-06-13 21:00:00,
2013-06-13 17:05:00,62.4,39.0,29.38,SSE,152,3.0,6.0,42,0.00,CLR,CLR,0.00,WeatherDisplay:10.37,2013-06-13 21:05:00,
2013-06-13 17:10:00,62.2,38.2,29.38,SE,139,5.0,6.0,41,0.00,CLR,CLR,0.00,WeatherDisplay:10.37,2013-06-13 21:10:00,
2013-06-13 17:20:00,62.2,38.2,29.38,SE,142,3.0,6.0,41,0.00,CLR,CLR,0.00,WeatherDisplay:10.37,2013-06-13 21:20:00,
2013-06-13 17:30:00,62.4,39.0,29.38,SSE,159,3.0,8.0,42,0.00,CLR,CLR,0.00,WeatherDisplay:10.37,2013-06-13 21:30:00,
2013-06-13 17:40:00,62.4,39.0,29.38,SSE,154,1.0,6.0,42,0.00,CLR,CLR,0.00,WeatherDisplay:10.37,2013-06-13 21:40:00,
2013-06-13 17:50:00,62.6,39.8,29.38,SSE,164,5.0,11.0,43,0.00,CLR,CLR,0.00,WeatherDisplay:10.37,2013-06-13 21:50:00,
2013-06-13 18:00:00,61.9,38.5,29.38,SE,132,3.0,6.0,42,0.00,CLR,CLR,0.00,WeatherDisplay:10.37,2013-06-13 22:00:00,
2013-06-13 18:05:00,61.7,39.0,29.38,SE,136,3.0,7.0,43,0.00,CLR,CLR,0.00,WeatherDisplay:10.37,2013-06-13 22:05:00,
2013-06-13 18:10:00,61.3,38.6,29.38,SE,138,1.0,6.0,43,0.00,CLR,CLR,0.00,WeatherDisplay:10.37,2013-06-13 22:10:00,
2013-06-13 18:20:00,61.1,39.0,29.38,SE,140,5.0,8.0,44,0.00,CLR,CLR,0.00,WeatherDisplay:10.37,2013-06-13 22:20:00,
2013-06-13 18:30:00,60.8,39.9,29.38,SSE,150,2.0,6.0,46,0.00,CLR,CLR,0.00,WeatherDisplay:10.37,2013-06-13 22:30:00,
2013-06-13 18:40:00,60.6,40.3,29.38,SSE,149,1.0,6.0,47,0.00,CLR,CLR,0.00,WeatherDisplay:10.37,2013-06-13 22:40:00,
2013-06-13 18:50:00,60.3,40.5,29.38,SE,146,5.0,6.0,48,0.00,CLR,CLR,0.00,WeatherDisplay:10.37,2013-06-13 22:50:00,
2013-06-13 19:00:00,59.7,40.5,29.38,SSE,149,0.0,4.0,49,0.00,CLR,CLR,0.00,WeatherDisplay:10.37,2013-06-13 23:00:00,
2013-06-13 19:05:00,59.5,40.9,29.38,SE,142,0.0,4.0,50,0.00,CLR,CLR,0.00,WeatherDisplay:10.37,2013-06-13 23:05:00,
2013-06-13 19:10:00,59.3,40.6,29.38,SE,140,2.0,4.0,50,0.00,CLR,CLR,0.00,WeatherDisplay:10.37,2013-06-13 23:10:00,
2013-06-13 19:20:00,58.8,40.7,29.38,SSE,148,0.0,3.0,51,0.00,CLR,CLR,0.00,WeatherDisplay:10.37,2013-06-13 23:20:00,
2013-06-13 19:30:00,58.5,40.9,29.38,SE,135,0.0,3.0,52,0.00,CLR,CLR,0.00,WeatherDisplay:10.37,2013-06-13 23:30:00,
2013-06-13 19:40:00,58.3,41.7,29.38,SE,142,1.0,4.0,54,0.00,CLR,CLR,0.00,WeatherDisplay:10.37,2013-06-13 23:40:00,
2013-06-13 19:50:00,57.9,41.8,29.41,ESE,120,0.0,3.0,55,0.00,CLR,CLR,0.00,WeatherDisplay:10.37,2013-06-13 23:50:00,
2013-06-13 20:00:00,57.7,42.6,29.41,SE,143,0.0,3.0,57,0.00,CLR,CLR,0.00,WeatherDisplay:10.37,2013-06-14 00:00:00,
2013-06-13 20:05:00,57.6,42.9,29.41,SE,134,0.0,3.0,58,0.00,CLR,CLR,0.00,WeatherDisplay:10.37,2013-06-14 00:05:00,
2013-06-13 20:10:00,57.4,42.8,29.41,SE,138,0.0,0.0,58,0.00,CLR,CLR,0.00,WeatherDisplay:10.37,2013-06-14 00:10:00,
2013-06-13 20:20:00,57.2,43.4,29.41,SE,139,0.0,0.0,60,0.00,CLR,CLR,0.00,WeatherDisplay:10.37,2013-06-14 00:20:00,
2013-06-13 20:30:00,56.8,43.5,29.41,SE,131,0.0,0.0,61,0.00,CLR,CLR,0.00,WeatherDisplay:10.37,2013-06-14 00:30:00,
2013-06-13 20:35:00,56.8,43.9,29.41,SE,124,0.0,0.0,62,0.00,CLR,CLR,0.00,WeatherDisplay:10.37,2013-06-14 00:35:00,
2013-06-13 20:45:00,56.5,44.0,29.41,SE,134,0.0,0.0,63,0.00,CLR,CLR,0.00,WeatherDisplay:10.37,2013-06-14 00:45:00,
2013-06-13 20:50:00,56.5,44.0,29.41,SE,139,0.0,4.0,63,0.00,CLR,CLR,0.00,WeatherDisplay:10.37,2013-06-14 00:50:00,
2013-06-13 21:00:00,56.3,44.3,29.41,SE,132,1.0,4.0,64,0.00,CLR,CLR,0.00,WeatherDisplay:10.37,2013-06-14 01:00:00,
2013-06-13 21:05:00,56.1,44.5,29.41,SE,140,0.0,5.0,65,0.00,CLR,CLR,0.00,WeatherDisplay:10.37,2013-06-14 01:05:00,
2013-06-13 21:10:00,55.9,44.3,29.41,SSE,149,0.0,4.0,65,0.00,CLR,CLR,0.00,WeatherDisplay:10.37,2013-06-14 01:10:00,
2013-06-13 21:15:00,55.9,44.7,29.41,SSE,147,0.0,0.0,66,0.00,CLR,CLR,0.00,WeatherDisplay:10.37,2013-06-14 01:15:00,
2013-06-13 21:20:00,55.8,44.6,29.41,East,93,0.0,0.0,66,0.00,CLR,CLR,0.00,WeatherDisplay:10.37,2013-06-14 01:20:00,
2013-06-13 21:30:00,55.6,45.2,29.41,ENE,68,0.0,3.0,68,0.00,CLR,CLR,0.00,WeatherDisplay:10.37,2013-06-14 01:30:00,
2013-06-13 21:40:00,55.4,45.4,29.41,East,87,1.0,5.0,69,0.00,CLR,CLR,0.00,WeatherDisplay:10.37,2013-06-14 01:40:00,
2013-06-13 21:50:00,55.2,45.6,29.41,ESE,106,0.0,4.0,70,0.00,CLR,CLR,0.00,WeatherDisplay:10.37,2013-06-14 01:50:00,
2013-06-13 22:00:00,55.2,46.0,29.41,ENE,78,0.0,3.0,71,0.00,CLR,CLR,0.00,WeatherDisplay:10.37,2013-06-14 02:00:00,
2013-06-13 22:05:00,55.0,45.8,29.41,East,79,0.0,3.0,71,0.00,CLR,CLR,0.00,WeatherDisplay:10.37,2013-06-14 02:05:00,
2013-06-13 22:10:00,55.0,46.2,29.41,ENE,67,0.0,0.0,72,0.00,CLR,CLR,0.00,WeatherDisplay:10.37,2013-06-14 02:10:00,
2013-06-13 22:20:00,55.0,46.5,29.41,East,84,0.0,4.0,73,0.00,CLR,CLR,0.00,WeatherDisplay:10.37,2013-06-14 02:20:00,
2013-06-13 22:30:00,55.0,46.5,29.41,East,99,0.0,3.0,73,0.00,CLR,CLR,0.00,WeatherDisplay:10.37,2013-06-14 02:30:00,
2013-06-13 22:40:00,55.1,46.9,29.41,East,87,2.0,4.0,74,0.00,CLR,CLR,0.00,WeatherDisplay:10.37,2013-06-14 02:40:00,
2013-06-13 22:50:00,55.4,47.6,29.38,East,101,1.0,5.0,75,0.00,CLR,CLR,0.00,WeatherDisplay:10.37,2013-06-14 02:50:00,
2013-06-13 23:00:00,55.6,48.1,29.41,East,91,1.0,4.0,76,0.00,CLR,CLR,0.00,WeatherDisplay:10.37,2013-06-14 03:00:00,
2013-06-13 23:05:00,55.6,48.1,29.41,ENE,78,1.0,3.0,76,0.00,CLR,CLR,0.00,WeatherDisplay:10.37,2013-06-14 03:05:00,
2013-06-13 23:10:00,55.6,48.5,29.41,East,95,1.0,4.0,77,0.00,CLR,CLR,0.00,WeatherDisplay:10.37,2013-06-14 03:10:00,
2013-06-13 23:20:00,55.6,48.5,29.41,East,90,0.0,3.0,77,0.00,CLR,CLR,0.00,WeatherDisplay:10.37,2013-06-14 03:20:00,
2013-06-13 23:30:00,55.8,49.0,29.38,ENE,74,0.0,0.0,78,0.00,CLR,CLR,0.00,WeatherDisplay:10.37,2013-06-14 03:30:00,
2013-06-13 23:40:00,55.8,49.0,29.38,East,85,0.0,0.0,78,0.00,CLR,CLR,0.00,WeatherDisplay:10.37,2013-06-14 03:40:00,
2013-06-13 23:50:00,55.8,49.3,29.38,ENE,77,0.0,0.0,79,0.00,CLR,CLR,0.00,WeatherDisplay:10.37,2013-06-14 03:50:00,